Date String (YYYY-MM-DD hh:mm:ss) UTC,Instrument flags,absolute air pressure of the measurement (hPa),sample flow rate (lpm),inlet stack bypass flow (lpm),air temperature of the measurement (°C),ambient temperature measured by the external sensor (°C),aerosol sample conditioner tube jacket temperature (°C),OPC LED temperature (°C),internal box temperature (°C),relative humidity of the measurement (%),span deviation,mass concentration of particles derived from Lorenz-Mie calculation of OPC scattering (μg/m³),mass concentration of particles derived from Lorenz-Mie calculation of OPC scattering (μg/m³),mass concentration of particles derived from Lorenz-Mie calculation of OPC scattering (μg/m³)
DateTimeUTC,F1_M11,P_M11,Q1_M11,Q2_M11,T1_M11,T2_M11,T3_M11,T4_M11,T5_M11,U1_M11,ZSPAN_M11,X0_M11,X2_M11,X1_M11
2023-08-31 14:00:00,SystemResetWarning,0829.8,5.01,000.00,026.0,022.7,000.0,034.3,027.3,24.6,0000.0,0009.29,0003.14,0002.46
2023-08-31 14:01:00,SystemResetWarning,0829.7,5.00,000.00,026.0,023.0,000.0,034.3,027.3,23.2,0000.0,0009.31,0003.14,0002.45
2023-08-31 14:02:00,SystemResetWarning,0829.7,5.01,000.00,025.9,023.3,000.0,034.3,027.3,23.8,0000.0,0009.33,0003.12,0002.45
2023-08-31 14:03:00,SystemResetWarning,0829.8,4.99,000.00,025.9,023.6,000.0,034.3,027.4,25.9,0000.0,0009.80,0003.11,0002.45
2023-08-31 14:04:00,SystemResetWarning,0829.8,4.99,000.00,026.0,023.9,000.0,034.3,027.5,26.0,0000.0,0009.82,0003.12,0002.44
2023-08-31 14:05:00,SystemResetWarning,0829.8,5.00,000.00,026.0,024.2,000.0,034.4,027.6,25.3,0000.0,0009.32,0003.11,0002.45
2023-08-31 14:06:00,SystemResetWarning,0829.8,5.01,000.00,026.0,024.5,000.0,034.4,027.7,26.1,0000.0,0008.08,0003.10,0002.45
2023-08-31 14:07:00,SystemResetWarning,0829.8,5.00,000.00,026.1,024.7,000.0,034.4,027.8,26.8,0000.0,0007.90,0003.06,0002.44
2023-08-31 14:08:00,SystemResetWarning,0829.8,5.00,000.00,026.1,024.9,000.0,034.4,027.8,26.1,0000.0,0007.56,0003.05,0002.44
2023-08-31 14:09:00,SystemResetWarning,0829.8,5.00,000.00,026.1,025.0,000.0,034.4,027.9,25.8,0000.0,0007.10,0003.04,0002.44
2023-08-31 14:10:00,SystemResetWarning,0829.8,4.99,000.00,026.2,024.9,000.0,034.4,027.9,24.1,0000.0,0006.43,0003.07,0002.46
2023-08-31 14:11:00,SystemResetWarning,0829.8,4.99,000.00,026.1,023.5,000.0,034.4,027.5,23.4,0000.0,0006.46,0003.09,0002.48
2023-08-31 14:12:00,SystemResetWarning,0829.8,5.01,000.00,026.0,022.7,000.0,034.3,027.3,22.8,0000.0,0006.37,0003.08,0002.48
2023-08-31 14:13:00,SystemResetWarning,0829.8,5.01,000.00,026.0,022.9,000.0,034.2,027.3,21.9,0000.0,0006.42,0003.10,0002.49
2023-08-31 14:14:00,SystemResetWarning,0829.8,4.99,000.00,025.9,023.2,000.0,034.3,027.3,21.2,0000.0,0006.43,0003.13,0002.50
2023-08-31 14:15:00,SystemResetWarning,0829.8,4.99,000.00,025.9,023.5,000.0,034.3,027.4,21.1,0000.0,0006.77,0003.13,0002.50
2023-08-31 14:16:00,SystemResetWarning,0829.8,5.00,000.00,025.9,023.9,000.0,034.3,027.5,21.7,0000.0,0006.96,0003.11,0002.50
2023-08-31 14:17:00,SystemResetWarning,0829.8,5.01,000.00,026.0,024.2,000.0,034.3,027.6,21.7,0000.0,0007.05,0003.13,0002.50
2023-08-31 14:18:00,SystemResetWarning,0829.8,5.00,000.00,026.0,024.4,000.0,034.4,027.7,22.1,0000.0,0007.70,0003.14,0002.50
2023-08-31 14:19:00,SystemResetWarning,0829.8,5.00,000.00,026.0,024.7,000.0,034.4,027.8,21.9,0000.0,0007.66,0003.13,0002.50
2023-08-31 14:20:00,SystemResetWarning,0829.8,5.00,000.00,026.1,024.9,000.0,034.4,027.8,21.7,0000.0,0007.61,0003.12,0002.50
2023-08-31 14:21:00,SystemResetWarning,0829.8,5.00,000.00,026.1,025.0,000.0,034.4,027.9,21.0,0000.0,0007.55,0003.10,0002.49
2023-08-31 14:22:00,SystemResetWarning,0829.7,5.00,000.00,026.2,024.6,000.0,034.4,027.8,20.9,0000.0,0007.54,0003.08,0002.47
2023-08-31 14:23:00,SystemResetWarning,0829.7,4.98,000.00,026.1,023.2,000.0,034.3,027.3,20.7,0000.0,0007.58,0003.10,0002.46
2023-08-31 14:24:00,SystemResetWarning,0829.7,5.02,000.00,026.0,022.7,000.0,034.2,027.2,20.8,0000.0,0007.55,0003.10,0002.45
2023-08-31 14:25:00,SystemResetWarning,0829.7,5.00,000.00,025.9,022.9,000.0,034.2,027.3,20.7,0000.0,0007.38,0003.04,0002.44
2023-08-31 14:26:00,SystemResetWarning,0829.7,5.00,000.00,025.9,023.2,000.0,034.3,027.3,20.2,0000.0,0006.37,0003.00,0002.45
2023-08-31 14:27:00,SystemResetWarning,0829.7,5.00,000.00,025.9,023.6,000.0,034.3,027.4,20.7,0000.0,0006.17,0003.00,0002.46
2023-08-31 14:28:00,SystemResetWarning,0829.8,5.00,000.00,025.9,023.9,000.0,034.3,027.5,20.9,0000.0,0006.25,0003.03,0002.46
2023-08-31 14:29:00,SystemResetWarning,0829.8,5.00,000.00,025.9,024.2,000.0,034.3,027.6,21.5,0000.0,0005.14,0003.05,0002.46
2023-08-31 14:30:00,SystemResetWarning,0829.8,5.00,000.00,026.0,024.5,000.0,034.3,027.7,21.6,0000.0,0005.32,0003.11,0002.47
2023-08-31 14:31:00,SystemResetWarning,0829.8,4.99,000.00,026.0,024.7,000.0,034.3,027.8,21.0,0000.0,0005.00,0003.11,0002.47
2023-08-31 14:32:00,SystemResetWarning,0829.8,5.00,000.00,026.1,024.8,000.0,034.4,027.8,20.6,0000.0,0005.01,0003.14,0002.49
2023-08-31 14:33:00,SystemResetWarning,0829.8,4.99,000.00,026.1,024.1,000.0,034.3,027.6,20.7,0000.0,0005.32,0003.18,0002.51
2023-08-31 14:34:00,SystemResetWarning,0829.8,5.00,000.00,026.0,022.8,000.0,034.2,027.2,21.5,0000.0,0005.94,0003.19,0002.53
2023-08-31 14:35:00,SystemResetWarning,0829.8,5.02,000.00,025.9,022.7,000.0,034.2,027.2,21.7,0000.0,0006.81,0003.21,0002.55
2023-08-31 14:36:00,SystemResetWarning,0829.8,5.00,000.00,025.8,023.0,000.0,034.2,027.1,20.9,0000.0,0007.34,0003.25,0002.57
2023-08-31 14:37:00,SystemResetWarning,0829.7,4.99,000.00,025.8,023.3,000.0,034.2,027.2,21.1,0000.0,0008.54,0003.25,0002.58
2023-08-31 14:38:00,SystemResetWarning,0829.7,5.00,000.00,025.8,023.7,000.0,034.2,027.4,21.3,0000.0,0009.12,0003.26,0002.59
2023-08-31 14:39:00,SystemResetWarning,0829.7,5.00,000.00,025.9,024.0,000.0,034.2,027.5,21.3,0000.0,0009.17,0003.28,0002.61
2023-08-31 14:40:00,SystemResetWarning,0829.8,5.00,000.00,025.9,024.3,000.0,034.3,027.6,20.9,0000.0,0009.34,0003.31,0002.62
2023-08-31 14:41:00,SystemResetWarning,0829.8,5.01,000.00,025.9,024.5,000.0,034.3,027.6,21.1,0000.0,0009.63,0003.30,0002.64
2023-08-31 14:42:00,SystemResetWarning,0829.8,4.99,000.00,026.0,024.7,000.0,034.3,027.7,21.0,0000.0,0009.76,0003.31,0002.66
2023-08-31 14:43:00,SystemResetWarning,0829.8,4.98,000.00,026.0,024.1,000.0,034.2,027.6,23.3,0000.0,0009.77,0003.32,0002.68
2023-08-31 14:44:00,SystemResetWarning,0829.8,5.01,000.00,025.9,022.8,000.0,034.2,027.2,25.9,0000.0,0010.40,0003.31,0002.70
2023-08-31 14:45:00,SystemResetWarning,0829.8,5.00,000.00,025.8,022.6,000.0,034.1,027.2,25.7,0000.0,0010.34,0003.31,0002.69
2023-08-31 14:46:00,SystemResetWarning,0829.7,5.01,000.00,025.8,022.9,000.0,034.1,027.1,24.5,0000.0,0009.88,0003.30,0002.69
2023-08-31 14:47:00,SystemResetWarning,0829.7,5.01,000.00,025.8,023.3,000.0,034.1,027.2,24.7,0000.0,0009.90,0003.31,0002.69
2023-08-31 14:48:00,SystemResetWarning,0829.7,4.99,000.00,025.8,023.6,000.0,034.2,027.3,23.3,0000.0,0008.99,0003.33,0002.70
2023-08-31 14:49:00,SystemResetWarning,0829.7,5.00,000.00,025.8,024.0,000.0,034.2,027.5,22.8,0000.0,0009.07,0003.33,0002.72
2023-08-31 14:50:00,SystemResetWarning,0829.7,5.00,000.00,025.9,024.2,000.0,034.2,027.6,23.3,0000.0,0009.20,0003.33,0002.75
2023-08-31 14:51:00,SystemResetWarning,0829.8,5.00,000.00,025.9,024.5,000.0,034.2,027.6,22.8,0000.0,0009.23,0003.30,0002.76
2023-08-31 14:52:00,SystemResetWarning,0829.8,4.99,000.00,025.9,024.6,000.0,034.2,027.7,24.3,0000.0,0009.10,0003.32,0002.78
2023-08-31 14:53:00,SystemResetWarning,0829.8,4.98,000.00,025.9,023.5,000.0,034.2,027.3,23.3,0000.0,0009.54,0003.35,0002.79
2023-08-31 14:54:00,SystemResetWarning,0829.7,5.02,000.00,025.8,022.6,000.0,034.1,027.0,22.2,0000.0,0009.63,0003.39,0002.79
2023-08-31 14:55:00,SystemResetWarning,0829.7,5.01,000.00,025.7,022.7,000.0,034.0,027.1,23.6,0000.0,0009.96,0003.39,0002.79
2023-08-31 14:56:00,SystemResetWarning,0829.7,4.99,000.00,025.7,023.0,000.0,034.1,027.1,24.4,0000.0,0009.66,0003.39,0002.81
2023-08-31 14:57:00,SystemResetWarning,0829.7,4.99,000.00,025.7,023.4,000.0,034.1,027.2,23.4,0000.0,0010.04,0003.44,0002.84
2023-08-31 14:58:00,SystemResetWarning,0829.7,5.00,000.00,025.7,023.7,000.0,034.1,027.3,22.7,0000.0,0010.01,0003.44,0002.85
2023-08-31 14:59:00,SystemResetWarning,0829.7,5.01,000.00,025.8,024.1,000.0,034.1,027.4,23.0,0000.0,0009.82,0003.46,0002.88
